User: anonymous   Login
Location: Les Coudrans
(46.1056°N, 1.1158°W)
Time: 02:53:30
(UTC+00:00)
Language:

Cosmos 1602 - Orbit

View from above orbital plane
View from above orbital plane
View from above satellite
View from above satellite

Ground track
Ground track

The orbit data is extracted from the following two-line orbital elements,

1 15331U 84105A   21127.92839833  .00000282  00000-0  13580-4 0  9992
2 15331  82.5403  11.3249 0015992  60.9101 299.3729 15.14314308996498
Epoch (UTC): 07 May 2021 22:16:53
Eccentricity: 0.0015992
inclination: 82.5403°
perigee height: 512 km
apogee height: 534 km
right ascension of ascending node: 11.3249°
argument of perigee: 60.9101°
revolutions per day: 15.14314308
mean anomaly at epoch: 299.3729°
orbit number at epoch: 99649

The dashed part of the orbit path shows where the satellite is in the earth's shadow,  

DLR